RH
8 8 9 9 9 8 7 7 7 7 8 7 8 9 11 8 8 8 7 6 7 8 8 8 8 8 8 8 8 8 8 8 8 8 7 8 10 12 13 14 15 17 16 10
10 11 11 11 10 9 9 9 10 10 12 11 12 13 12 12 12 12 11 9 7 7 8 10 10 10 9 8 9 10 11 12 13 12 11 11 10 10 11 13 15 18 19 15
12 13 13 13 13 12 12 12 13 13 15 17 16 17 16 16 15 14 13 11 9 8 8 8 9 8 9 9 8 7 7 8 11 9 12 14 14 14 11 12 14 18 20 18
15 16 17 17 18 17 16 17 18 19 20 21 22 21 20 18 15 13 12 10 8 7 6 5 5 5 5 4 5 5 5 6 7 10 13 13 16 18 16 12 13 15 18 18
19 21 23 23 23 22 23 23 26 26 26 26 25 23 20 17 14 12 10 8 6 5 5 4 4 4 4 4 5 5 5 5 6 6 6 8 13 16 21 20 16 14 16 17
28 29 29 30 31 32 32 33 32 30 29 30 25 20 21 16 12 10 8 7 7 6 6 6 6 6 6 6 6 5 5 5 5 5 5 6 7 12 20 24 23 21 19 17
36 36 36 40 42 42 41 38 34 31 27 25 21 18 17 14 10 9 8 8 8 7 7 7 7 7 6 6 5 5 5 5 5 5 8 11 11 12 18 24 21 17 13 12
43 43 50 50 50 48 45 38 31 30 28 23 17 16 14 12 11 10 9 8 8 8 8 7 6 5 5 5 5 7 13 20 29 43 64 43 28 21 30 23 19 18 15 13
56 54 56 57 57 58 54 51 39 28 25 21 19 16 14 12 10 10 9 8 7 6 5 5 5 9 70 100 100 100 100 100 92 95 100 79 53 48 35 28 28 21 20 15
66 66 70 76 75 70 57 42 32 23 21 17 15 13 12 10 9 7 6 6 5 4 4 5 12 52 86 97 98 99 100 96 100 100 100 100 83 68 62 44 43 39 41 30
86 83 83 84 76 60 46 36 24 20 17 15 12 10 8 7 7 6 6 6 8 10 20 42 54 62 75 94 93 90 91 100 99 93 62 70 96 96 58 74 62 56 96 64
98 95 91 79 65 52 32 23 19 16 14 11 8 7 6 5 5 5 6 7 8 9 9 10 10 10 10 10 10 12 52 82 81 100 100 53 86 73 81 97 73 64 86 76
96 90 92 84 65 42 25 18 14 11 8 5 5 4 5 6 7 8 10 13 13 13 12 13 14 14 13 13 13 13 11 9 76 94 78 94 93 95 100 98 65 73 63 98
97 96 98 58 32 20 16 12 8 6 4 5 4 6 8 9 12 14 16 16 16 17 18 21 28 29 29 28 20 18 18 14 9 96 93 100 100 100 99 90 99 56 45 75
96 82 40 22 17 12 8 6 4 4 5 6 6 9 12 13 15 17 19 21 21 21 24 31 34 35 34 34 38 28 29 23 13 10 50 76 100 98 100 95 34 48 41 41
37 24 17 14 9 6 5 4 4 5 6 8 12 15 18 23 25 24 30 31 25 26 37 40 42 43 42 44 46 42 27 42 22 13 8 11 90 88 77 60 32 70 57 68
19 15 10 8 5 4 4 4 5 7 10 14 18 22 28 33 33 37 41 37 34 45 49 50 46 44 48 51 57 48 28 45 37 19 12 11 25 100 45 29 90 66 61 100
12 8 6 4 4 3 4 5 7 11 17 19 24 30 32 35 36 48 57 53 55 57 55 51 47 56 64 57 53 47 30 48 50 40 30 17 94 74 60 100 96 100 98 87
6 4 4 4 4 4 5 8 12 16 19 25 34 36 45 51 46 60 67 74 74 68 60 56 56 73 71 58 57 52 35 50 60 69 70 30 99 94 92 82 77 28 56 52
4 4 3 4 5 6 8 15 21 24 20 32 29 36 43 44 44 61 75 82 75 74 62 56 56 64 76 69 62 44 36 51 99 89 100 34 99 92 54 36 42 20 18 30
3 3 4 6 9 12 18 26 28 28 37 30 35 47 49 61 68 62 64 66 72 72 61 57 53 55 62 65 64 38 41 74 98 100 100 49 90 69 53 59 65 54 57 45
4 4 6 8 13 17 26 30 37 37 34 30 57 58 64 77 82 76 76 76 77 75 66 75 71 64 64 68 65 36 54 85 100 100 98 80 65 61 60 60 73 59 47 51
5 7 11 18 22 28 33 36 35 31 33 64 65 71 79 88 82 82 85 83 89 81 80 89 80 71 75 69 48 41 60 98 100 100 88 56 50 84 69 76 65 60 76 68
6 11 17 24 27 35 37 34 28 35 62 71 74 84 84 86 81 87 82 82 87 89 79 81 83 86 80 66 35 61 73 100 100 100 88 61 96 100 100 75 63 100 74 98
10 13 20 28 32 29 26 25 32 75 76 84 92 82 83 89 89 83 74 79 88 91 78 82 74 83 88 38 57 90 84 100 100 100 100 100 100 99 86 98 100 100 100 100
10 14 18 21 22 23 25 39 84 83 88 96 100 100 89 88 91 90 86 91 99 90 75 84 95 87 45 52 96 87 100 100 100 100 100 100 93 90 100 100 100 100 100 100
Wind_Speed
15 16 19 22 23 24 24 24 22 25 28 31 30 33 31 35 33 34 37 41 42 41 42 44 44 45 45 46 46 47 51 51 50 51 50 49 49 50 50 51 51 50 50 49
19 21 24 26 26 26 27 28 30 31 32 36 38 40 43 44 41 39 40 42 46 46 46 47 49 49 50 51 51 51 52 52 53 56 56 56 55 55 56 56 55 54 54 53
24 26 29 30 31 33 34 34 35 37 36 38 42 45 48 49 49 51 49 48 48 50 52 52 51 52 53 53 55 58 60 60 61 63 61 60 60 59 60 60 59 57 56 56
28 30 31 33 36 38 38 39 40 41 43 45 48 50 50 53 54 54 53 53 54 54 55 57 57 58 59 60 61 62 65 65 64 64 63 64 62 63 64 64 63 63 62 60
35 35 36 37 39 40 40 42 44 45 47 50 53 54 54 57 56 55 57 58 60 61 63 64 65 66 68 71 72 72 71 69 67 66 66 66 67 66 66 68 68 68 67 65
38 40 40 41 41 42 45 46 47 49 51 55 53 55 59 59 58 60 61 63 65 67 70 72 74 76 78 79 80 79 78 78 78 77 76 72 68 67 67 65 67 70 71 69
41 43 43 43 45 47 47 49 50 52 54 57 56 59 63 61 62 64 67 70 73 75 77 80 82 84 84 85 86 87 86 85 85 82 78 75 69 66 66 65 65 71 73 72
44 46 46 46 46 48 49 49 51 56 56 57 60 64 65 68 71 73 76 79 81 84 84 83 84 86 88 88 88 87 84 81 76 72 66 65 68 65 65 65 64 67 71 72
47 49 50 49 50 51 52 53 55 57 60 64 67 69 73 76 78 81 83 86 88 88 88 87 86 84 78 77 76 75 75 78 76 72 72 69 71 67 69 69 69 69 69 72
50 52 51 51 54 54 54 56 57 59 64 69 72 75 80 82 85 87 90 91 91 91 91 90 86 81 80 84 84 83 77 73 70 67 70 70 67 69 69 66 68 66 66 69
52 53 53 53 54 54 57 60 62 66 70 74 78 81 85 86 86 85 83 82 83 82 83 84 84 85 88 87 86 86 90 90 87 91 88 81 84 77 74 72 70 62 59 64
54 56 54 54 55 57 59 63 67 70 74 78 83 88 85 85 86 84 84 83 81 80 80 80 78 76 75 77 80 84 93 89 89 85 63 81 81 82 78 70 66 62 55 56
54 56 54 56 58 61 64 69 73 78 81 84 83 87 82 80 80 78 75 73 73 70 66 63 62 60 59 61 63 64 68 74 87 82 78 78 74 62 71 64 64 57 58 57
56 54 53 57 61 64 68 73 76 78 81 79 83 76 72 70 68 65 62 61 60 57 54 53 52 51 50 51 52 53 56 58 69 91 80 65 65 64 55 55 50 52 54 54
53 53 57 62 66 70 74 77 76 77 76 76 71 67 63 62 59 57 55 53 51 50 52 52 51 49 47 46 47 48 50 51 55 75 91 88 59 53 53 58 51 53 50 52
53 58 62 67 71 75 77 76 75 73 70 66 62 57 56 54 52 48 50 52 50 51 52 50 50 51 50 48 45 45 45 47 47 57 73 82 75 57 64 49 52 56 53 47
58 63 68 72 74 76 79 74 70 65 59 54 52 51 48 46 47 47 48 48 50 50 48 47 47 47 48 47 45 43 41 43 42 46 55 69 68 55 56 60 53 50 50 43
64 68 72 74 75 78 76 66 59 53 49 49 48 47 46 44 43 45 48 49 48 48 46 44 45 47 43 41 41 40 38 39 37 34 37 56 47 60 72 41 43 46 33 35
67 70 73 73 72 72 64 56 50 48 46 43 44 44 41 42 41 42 44 46 47 45 43 44 42 40 35 37 37 38 34 35 30 27 28 52 50 41 59 50 42 39 38 38
70 72 72 65 63 62 54 47 44 45 42 41 40 39 39 40 39 37 40 42 42 40 42 42 42 40 38 37 33 32 29 29 29 25 27 43 50 37 40 31 33 37 39 38
68 67 63 56 54 51 47 44 44 44 43 41 39 38 38 40 39 38 39 43 42 41 43 45 45 41 37 36 29 26 27 27 28 25 30 45 44 32 36 33 29 28 31 34
64 61 56 51 47 44 42 42 43 43 42 38 36 38 39 37 38 38 40 42 40 39 43 47 45 41 34 32 24 22 24 28 32 22 29 47 33 26 32 31 29 29 27 28
55 52 48 43 41 39 40 41 40 40 36 34 35 35 35 36 36 38 38 38 35 38 43 43 41 34 28 24 17 21 23 27 30 25 31 37 34 30 31 30 26 24 24 33
50 45 42 40 39 38 39 37 36 33 31 33 34 33 34 33 35 34 35 33 34 38 42 38 34 28 23 16 15 21 22 25 27 25 30 34 29 31 29 26 24 20 21 22
44 42 40 38 38 36 35 32 29 27 30 30 31 32 32 32 33 32 32 33 35 37 39 37 34 25 14 9 16 18 18 27 24 22 32 33 36 32 23 22 19 15 18 17
43 40 37 35 35 31 30 25 23 27 27 27 27 28 32 32 32 32 32 33 34 35 37 34 24 11 5 13 12 12 20 24 22 21 28 28 30 32 23 23 19 19 20 21
Wind_Direction
289 289 291 295 294 293 291 292 289 284 285 288 285 280 273 274 271 273 275 274 272 270 270 269 267 268 269 268 270 273 277 274 271 270 268 267 264 262 263 267 270 270 265 264
283 284 289 291 289 288 289 289 288 286 284 288 288 288 289 287 283 275 269 270 271 272 272 272 271 270 269 270 270 270 270 272 276 275 271 268 267 265 263 264 266 266 264 260
279 287 291 290 291 290 286 284 282 282 281 282 284 285 286 286 285 283 282 278 275 271 270 269 270 271 271 271 271 272 271 270 270 268 266 270 269 267 263 261 263 263 263 262
280 282 282 283 284 283 281 281 281 281 283 283 283 282 283 283 283 282 281 278 276 274 272 271 272 271 273 274 272 271 271 270 269 266 265 263 262 264 264 262 262 262 263 261
283 284 284 283 282 281 281 280 281 282 282 283 284 285 283 284 283 283 281 280 279 278 277 277 276 275 275 275 274 274 273 272 271 269 268 264 261 256 257 260 260 259 259 258
283 284 284 284 284 284 284 283 283 283 283 284 286 283 283 282 282 282 282 281 280 281 281 280 278 277 276 276 275 274 273 273 272 271 269 266 261 256 253 254 258 258 257 256
283 283 284 286 286 287 287 287 286 284 284 285 286 284 283 284 283 282 283 284 284 282 281 281 280 279 280 279 278 276 274 272 270 268 265 263 259 253 251 251 255 256 254 252
284 284 285 285 286 287 287 287 287 286 287 289 287 287 289 289 288 288 287 287 286 286 285 284 282 279 276 274 272 271 271 271 269 265 257 252 246 252 251 249 251 256 256 253
284 285 287 289 290 291 290 290 290 292 292 290 290 292 291 290 291 291 290 288 286 285 283 281 277 273 265 260 260 259 259 259 259 258 254 251 250 256 248 252 254 251 252 251
288 289 289 290 290 291 291 292 294 294 293 292 293 294 293 294 293 293 291 289 287 285 282 279 275 271 265 260 256 253 252 251 255 254 252 247 247 256 253 257 258 252 250 250
289 290 291 291 291 293 294 296 296 295 295 295 295 294 295 295 294 291 289 286 282 279 276 273 271 269 267 265 261 256 252 250 251 257 257 259 254 254 257 257 255 249 248 248
290 291 292 292 293 294 296 296 295 294 295 294 295 296 295 295 291 289 286 285 283 282 281 281 281 279 275 271 266 263 254 249 248 245 241 251 254 255 255 248 248 254 249 250
289 290 290 293 296 297 298 297 297 297 298 297 295 295 294 291 288 288 288 288 288 288 289 287 285 284 282 279 275 269 263 256 241 235 239 242 244 240 234 238 250 251 243 245
288 290 297 298 298 297 297 297 297 297 295 295 293 293 290 288 288 289 289 288 289 290 288 288 291 291 287 285 283 277 269 260 247 231 233 236 228 224 244 247 239 247 250 245
295 300 298 298 298 299 298 299 299 296 295 293 294 291 292 292 292 292 292 291 292 290 291 295 296 295 293 288 283 278 272 265 251 241 240 243 230 232 235 236 244 248 249 243
298 297 298 299 300 300 301 301 298 297 295 292 293 297 296 295 294 296 295 296 295 296 300 301 299 297 293 290 287 277 269 265 257 241 242 241 233 236 243 240 245 245 242 245
299 301 301 302 302 303 302 301 299 297 295 296 297 296 294 295 297 297 297 299 299 301 302 301 301 299 293 283 280 279 270 260 260 242 238 241 232 236 234 237 239 233 238 238
303 303 304 304 304 303 303 301 298 296 297 298 298 295 297 298 298 301 302 303 303 304 305 306 306 303 296 292 278 277 268 255 260 241 231 228 215 227 226 214 232 232 236 237
305 305 305 303 302 302 301 299 296 297 300 301 296 298 299 298 300 302 301 302 304 305 308 310 309 308 301 300 290 274 261 254 248 219 227 222 204 204 218 225 236 236 236 241
306 306 305 303 299 299 302 299 300 302 305 302 302 300 301 303 304 304 304 306 306 307 310 311 309 308 303 303 296 274 250 250 220 208 213 229 210 200 206 213 218 217 231 238
306 306 304 302 299 299 302 302 304 305 306 307 303 305 307 309 309 310 313 315 314 312 312 311 312 310 305 298 292 268 238 238 198 202 203 208 206 196 201 209 213 215 228 235
307 306 304 299 297 299 301 303 302 304 306 305 306 308 309 310 310 312 312 318 316 316 316 315 312 309 303 300 292 247 236 221 202 193 199 200 203 199 196 207 215 229 240 245
304 302 301 299 300 300 299 299 302 303 303 302 306 308 310 312 312 314 312 317 317 319 321 321 316 313 303 300 274 222 230 207 194 194 191 209 216 199 201 206 220 230 234 239
304 301 297 295 297 297 299 299 300 300 301 307 310 312 312 316 315 316 319 320 318 319 324 328 325 319 306 292 220 221 229 201 185 177 183 199 192 190 195 206 211 220 232 220
304 300 298 296 295 296 297 300 300 301 306 311 313 313 318 318 317 322 322 321 319 318 325 325 320 314 298 218 202 225 219 188 189 171 166 177 184 188 187 192 193 187 200 209
300 296 295 292 292 295 297 299 302 306 310 315 315 317 317 320 322 322 321 321 322 325 327 327 328 323 180 191 216 217 205 173 171 173 163 157 169 178 175 175 174 169 149 150